Regional Weather Roundup
Issued by NWS

Home | Current Version | Previous Version | Graphics & Text | Print | Product List | Glossary Off
Versions: 1 2 3 4 5 6 7 8 9 10 11 12 13 14 15 16 17 18 19 20 21 22 23 24 25 26 27 28 29 30 31 32 33 34 35 36 37 38 39 40 41 42 43 44 45 46 47 48 49 50

000
ASUS43 KLSX 271107
RWRMO

WEATHER SUMMARY FOR MISSOURI
NATIONAL WEATHER SERVICE SPRINGFIELD MO
500 AM CST FRI FEB 27 2015

NOTE: "FAIR" INDICATES FEW OR NO CLOUDS BELOW 12,000 FEET WITH NO
       SIGNIFICANT WEATHER AND/OR OBSTRUCTIONS TO VISIBILITY.
       CURRENT SKY AND/OR WEATHER CONDITIONS ARE NOT AVAILABLE FOR
       CHILLICOTHE AND FARMINGTON.

MOZ001>031-035>038-043-044-053-054-271200-
...NORTHERN AND WESTERN MISSOURI...

CITY           SKY/WX    TMP DP  RH WIND       PRES   REMARKS
KANSAS CTY INT PTCLDY     2  -4  76 N3        30.58S
KANSAS C DTWN  CLEAR      5  -4  66 N5        30.62S WCI  -4
LEE`S SUMMIT   CLEAR      2  -4  76 N5        30.59S WCI  -8
ST JOSEPH      CLEAR     -2  -6  83 N6        30.62S WCI -14
CHILLICOTHE      N/A      0  -6  76 CALM      30.62R
KIRKSVILLE     CLEAR     -3  -7  82 NW3       30.58R

$$
MOZ066>068-077>081-088>096-101>105-271200-
...SOUTHWEST MISSOURI...

CITY           SKY/WX    TMP DP  RH WIND       PRES   REMARKS
SPRINGFIELD    CLEAR      8   0  69 N7        30.52R WCI  -3
JOPLIN         CLEAR      9   2  73 NE8       30.56R WCI  -3

$$
MOZ032>034-039>042-045>050-055>058-069>072-271200-
...CENTRAL MISSOURI...

CITY           SKY/WX    TMP DP  RH WIND       PRES   REMARKS
COLUMBIA       CLEAR      2  -4  76 NW3       30.59R
JEFFERSON CITY CLEAR      4  -5  66 CALM      30.63R
ROLLA          CLEAR      3  -4  72 N5        30.53R WCI  -6
SEDALIA        CLEAR      5  -2  72 N7        30.60S WCI  -7
WHITEMAN AFB   CLEAR      2  -2  81 N5        30.59S WCI  -7
WARRENSBURG    CLEAR      3   0  85 CALM      30.61F
OSAGE BEACH    CLEAR      5  -2  72 NE3       30.57R

$$
MOZ051-052-059>065-271200-
...EAST CENTRAL MISSOURI...

CITY           SKY/WX    TMP DP  RH WIND       PRES   REMARKS
ST LOUIS INTL  CLEAR      4  -5  66 NW5       30.60R WCI  -5
SPIRIT OF STL  CLEAR      4  -5  66 N6        30.61R WCI  -7
ST CHARLES     CLEAR      2  -6  69 NW6       30.62R WCI  -9

$$
MOZ072>076-082>087-097>100-106>115-271200-
...SOUTH CENTRAL AND SOUTHEAST MISSOURI...

CITY           SKY/WX    TMP DP  RH WIND       PRES   REMARKS
CAPE GIRARDEAU CLEAR     10   2  69 N13       30.58R WCI  -5
FARMINGTON     CLEAR      5  -2  72 N8        30.57R WCI  -8
POPLAR BLUFF   CLEAR     13   2  61 N9        30.58R WCI   1
WEST PLAINS    CLEAR      8  -2  63 N7        30.51R WCI  -3

$$



USA.gov is the U.S. government's official web portal to all federal, state and local government web resources and services.